Brno, Czech Republic

2:24 AM CEST on August 20, 2017 (GMT +0200)
Turany

Weather History for LKTB - March, 2013

Change the Weather History Date:

Thursday, March 14, 2013

  Actual Average Record
Temperature  
Mean Temperature 27 °F -  
Max Temperature 30 °F 52 °F - ()
Min Temperature 24 °F 35 °F - ()
Degree Days  
Heating Degree Days 38    
Moisture  
Dew Point 17 °F    
Average Humidity 64    
Maximum Humidity 86    
Minimum Humidity 34    
Precipitation  
Precipitation 0.00 in 0.04 in - ()
Sea Level Pressure  
Sea Level Pressure 29.62 in    
Wind  
Wind Speed 14 mph ()    
Max Wind Speed 29 mph    
Max Gust Speed 36 mph    
Visibility 5.5 miles    
Events Snow    
T = Trace of Precipitation, MM = Missing Value Source: Averaged Metar Reports

Daily Weather History Graph

Daily Weather History Graph

Search for Another Location

Airport or City:

Trip Planner

Search our weather history database for the weather conditions in past years. The results will help you decide how hot, cold, wet, or windy it might be!

Date:

Astronomy

Mar. 14, 2013 Rise Set
Actual Time 6:08 AM CET 5:56 PM CET
Civil Twilight 5:37 AM CET 6:28 PM CET
Nautical Twilight 5:00 AM CET 7:05 PM CET
Astronomical Twilight 4:22 AM CET 7:43 PM CET
Moon 6:55 AM CET (3/14) 9:15 PM CET (3/14)
Length of Visible Light 12h 51m
Length of Day
11h 48m
Waxing Crescent, 7% of the Moon is Illuminated
Mar 14
Waxing Crescent
Mar 19
First Quarter
Mar 27
Full
Apr 3
Last Quarter
Apr 10
New

Hourly Weather History & Observations

Time (CET) Temp. Windchill Dew Point Humidity Pressure Visibility Wind Dir Wind Speed Gust Speed Precip Events Conditions
12:00 AM 30.2 °F 21.9 °F 23.0 °F 75% 29.62 in 3.1 mi NNW 9.2 mph - N/A Snow Light Snow
12:30 AM 28.4 °F 20.4 °F 24.8 °F 86% 29.62 in 3.1 mi NNW 8.1 mph - N/A Snow Light Snow
1:00 AM 29 °F - 22 °F 65% 29.68 in 4 mi NNW 11.2 mph - - Snow Light Snow
1:00 AM 28.4 °F 20.4 °F 23.0 °F 80% 29.62 in 3.7 mi NNW 8.1 mph - N/A Snow Light Snow
1:30 AM 28.4 °F 19.7 °F 23.0 °F 80% 29.62 in 4.3 mi NNW 9.2 mph - N/A   Overcast
2:00 AM 28.4 °F 18.5 °F 23.0 °F 80% 29.62 in 5.0 mi NNW 11.5 mph - N/A   Overcast
2:30 AM 28.4 °F 19.7 °F 23.0 °F 80% 29.62 in 4.3 mi NNW 9.2 mph - N/A   Overcast
3:00 AM 28.4 °F 18.5 °F 21.2 °F 74% 29.59 in 4.3 mi NNW 11.5 mph - N/A   Overcast
3:30 AM 28.4 °F 18.5 °F 21.2 °F 74% 29.62 in 4.3 mi NNW 11.5 mph - N/A   Overcast
4:00 AM 28.4 °F 18.0 °F 21.2 °F 74% 29.62 in 4.3 mi NNW 12.7 mph - N/A   Overcast
4:30 AM 28.4 °F 18.0 °F 21.2 °F 74% 29.62 in 3.7 mi NNW 12.7 mph - N/A   Overcast
5:00 AM 28.4 °F 18.0 °F 21.2 °F 74% 29.62 in 3.7 mi NNW 12.7 mph - N/A   Overcast
5:30 AM 28.4 °F 18.0 °F 21.2 °F 74% 29.62 in 4.3 mi NNW 12.7 mph - N/A   Overcast
6:00 AM 28.4 °F 18.5 °F 21.2 °F 74% 29.62 in 4.3 mi NNW 11.5 mph - N/A   Overcast
6:30 AM 28.4 °F 18.0 °F 19.4 °F 69% 29.62 in 3.7 mi NNW 12.7 mph - N/A   Overcast
7:00 AM 28 °F - 18 °F 53% 29.70 in 7 mi NNW 13.4 mph - -   Partly Cloudy
7:00 AM 28.4 °F 17.5 °F 19.4 °F 69% 29.62 in 6.2 mi NNW 13.8 mph - N/A   Overcast
7:30 AM 26.6 °F 15.7 °F 19.4 °F 74% 29.62 in 6.2 mi NNW 12.7 mph - N/A   Overcast
8:00 AM 28.4 °F 18.0 °F 19.4 °F 69% 29.62 in 6.2 mi NNW 12.7 mph - N/A   Overcast
8:30 AM 28.4 °F 16.6 °F 19.4 °F 69% 29.62 in 6.2 mi North 16.1 mph - N/A   Overcast
9:00 AM 28.4 °F 16.6 °F 19.4 °F 69% 29.62 in 6.2 mi North 16.1 mph - N/A   Overcast
9:30 AM 28.4 °F 15.8 °F 17.6 °F 64% 29.62 in 6.2 mi NNW 18.4 mph - N/A   Overcast
10:00 AM 28.4 °F 16.6 °F 17.6 °F 64% 29.65 in 6.2 mi NNW 16.1 mph - N/A   Overcast
10:30 AM 28.4 °F 16.2 °F 17.6 °F 64% 29.65 in 6.2 mi NNW 17.3 mph - N/A   Overcast
11:00 AM 28.4 °F 15.4 °F 17.6 °F 64% 29.62 in 6.2 mi NNW 19.6 mph - N/A   Overcast
11:30 AM 28.4 °F 15.4 °F 17.6 °F 64% 29.62 in 6.2 mi North 19.6 mph - N/A   Overcast
12:00 PM 28.4 °F 16.2 °F 17.6 °F 64% 29.62 in 6.2 mi NNW 17.3 mph - N/A   Overcast
12:30 PM 28.4 °F 15.8 °F 17.6 °F 64% 29.62 in 6.2 mi NNW 18.4 mph - N/A   Overcast
1:00 PM 29 °F - 15 °F 43% 29.67 in 7 mi NNW 22.4 mph - -   Overcast
1:00 PM 28.4 °F 15.4 °F 17.6 °F 64% 29.59 in 6.2 mi North 19.6 mph - N/A   Scattered Clouds
1:30 PM 30.2 °F 17.8 °F 17.6 °F 60% 29.59 in 6.2 mi NNW 19.6 mph - N/A   Mostly Cloudy
2:00 PM 30.2 °F 18.5 °F 17.6 °F 60% 29.59 in 6.2 mi NNW 17.3 mph - N/A   Overcast
2:30 PM 28.4 °F 15.8 °F 17.6 °F 64% 29.59 in 6.2 mi NNW 18.4 mph - N/A   Overcast
3:00 PM 28.4 °F 16.6 °F 15.8 °F 59% 29.59 in 6.2 mi NNW 16.1 mph - N/A   Mostly Cloudy
3:30 PM 28.4 °F 15.8 °F 15.8 °F 59% 29.59 in 6.2 mi NNW 18.4 mph - N/A   Mostly Cloudy
4:00 PM 28.4 °F 15.1 °F 15.8 °F 59% 29.59 in 6.2 mi North 20.7 mph - N/A   Mostly Cloudy
4:30 PM 28.4 °F 15.4 °F 15.8 °F 59% 29.59 in 6.2 mi North 19.6 mph - N/A   Partly Cloudy
5:00 PM 26.6 °F 12.4 °F 14.0 °F 59% 29.59 in 6.2 mi North 21.9 mph - N/A   Partly Cloudy
5:30 PM 26.6 °F 12.0 °F 14.0 °F 59% 29.59 in - North 23.0 mph - N/A   Clear
6:00 PM 26.6 °F 12.7 °F 12.2 °F 55% 29.62 in - North 20.7 mph - N/A   Clear
6:30 PM 26.6 °F 13.1 °F 12.2 °F 55% 29.62 in - NNW 19.6 mph - N/A   Clear
7:00 PM 26 °F - 9 °F 34% 29.68 in 10 mi NNW 17.9 mph - -   Overcast
7:00 PM 26.6 °F 13.4 °F 12.2 °F 55% 29.62 in - NNW 18.4 mph - N/A   Clear
7:30 PM 26.6 °F 12.0 °F 12.2 °F 55% 29.62 in - NNW 23.0 mph - N/A   Clear
8:00 PM 26.6 °F 11.7 °F 12.2 °F 55% 29.62 in - NNW 24.2 mph - N/A   Clear
8:30 PM 26.6 °F 13.1 °F 10.4 °F 51% 29.62 in - NNW 19.6 mph 31.1 mph N/A   Clear
9:00 PM 26.6 °F 11.7 °F 10.4 °F 51% 29.62 in - NNW 24.2 mph 35.7 mph N/A   Clear
9:30 PM 26.6 °F 12.4 °F 10.4 °F 51% 29.62 in - NNW 21.9 mph - N/A   Clear
10:00 PM 24.8 °F 9.3 °F 10.4 °F 54% 29.62 in - NNW 24.2 mph - N/A   Clear
10:30 PM 24.8 °F 8.1 °F 10.4 °F 54% 29.62 in - NNW 28.8 mph - N/A   Clear
11:00 PM 24.8 °F 9.3 °F 10.4 °F 54% 29.62 in - NNW 24.2 mph - N/A   Clear
11:30 PM 24.8 °F 9.0 °F 12.2 °F 59% 29.62 in - NNW 25.3 mph - N/A   Clear